New York Downtown Manhattan/w, NY

1:15 AM EDT on May 22, 2018 (GMT -0400)
New York Downtown Manhattan/w

Weather History for KJRB - March, 2014

Change the Weather History Date:

Wednesday, March 12, 2014

  Actual Average (KEWR) Record (KEWR)
Temperature  
Mean Temperature 47 °F -  
Max Temperature 55 °F 46 °F 73 °F (2012)
Min Temperature 37 °F 32 °F 13 °F (1934)
Degree Days  
Heating Degree Days 18    
Moisture  
Dew Point 42 °F    
Average Humidity 76    
Maximum Humidity 100    
Minimum Humidity 54    
Precipitation  
Precipitation 0.40 in - - ()
Sea Level Pressure  
Sea Level Pressure 29.35 in    
Wind  
Wind Speed 4 mph (NE)    
Max Wind Speed 14 mph    
Max Gust Speed 26 mph    
Visibility 9 miles    
Events      
Averages and records for this station are not official NWS values.
T = Trace of Precipitation, MM = Missing Value Source: NWS Daily Summary

Daily Weather History Graph

Daily Weather History Graph

Search for Another Location

Airport or City:

Astronomy

Mar. 12, 2014 Rise Set
Actual Time 7:12 AM EDT 6:59 PM EDT
Civil Twilight 6:45 AM EDT 7:26 PM EDT
Nautical Twilight 6:13 AM EDT 7:58 PM EDT
Astronomical Twilight 5:41 AM EDT 8:30 PM EDT
Moon 3:26 PM EDT (3/12) 4:43 AM EDT (3/12)
Length of Visible Light 12h 41m
Length of Day
11h 46m
Waxing Gibbous, 85% of the Moon is Illuminated
Mar 12
Waxing Gibbous
Mar 16
Full
Mar 23
Last Quarter
Mar 30
New
Apr 7
First Quarter

Hourly Weather History & Observations

Time (EDT) Temp. Windchill Dew Point Humidity Pressure Visibility Wind Dir Wind Speed Gust Speed Precip Events Conditions
12:15 AM 51.8 °F - 39.2 °F 62% 29.69 in 10.0 mi Calm Calm - N/A   Clear
12:35 AM 50.0 °F - 37.4 °F 62% 29.69 in 10.0 mi WSW 5.8 mph - N/A   Clear
12:55 AM 53.6 °F - 37.4 °F 54% 29.69 in 10.0 mi Calm Calm - N/A   Mostly Cloudy
1:15 AM 53.6 °F - 37.4 °F 54% 29.68 in 10.0 mi East 4.6 mph - N/A   Overcast
1:35 AM 48.2 °F - 37.4 °F 66% 29.68 in 10.0 mi NE 3.5 mph - N/A   Mostly Cloudy
1:55 AM 46.4 °F 45.2 °F 37.4 °F 71% 29.68 in 10.0 mi ENE 3.5 mph - N/A   Scattered Clouds
2:15 AM 44.6 °F - 37.4 °F 76% 29.68 in 10.0 mi Calm Calm - N/A   Scattered Clouds
2:35 AM 46.4 °F - 37.4 °F 71% 29.67 in 10.0 mi Calm Calm - N/A   Partly Cloudy
2:55 AM 46.4 °F - 37.4 °F 71% 29.66 in 10.0 mi Calm Calm - N/A   Partly Cloudy
3:15 AM 48.2 °F - 37.4 °F 66% 29.66 in 10.0 mi Calm Calm - N/A   Mostly Cloudy
3:35 AM 48.2 °F - 37.4 °F 66% 29.65 in 10.0 mi Calm Calm - N/A   Mostly Cloudy
3:55 AM 48.2 °F - 37.4 °F 66% 29.63 in 10.0 mi NE 4.6 mph - N/A   Clear
4:15 AM 48.2 °F - 37.4 °F 66% 29.62 in 10.0 mi NE 5.8 mph - N/A   Clear
4:35 AM 48.2 °F - 37.4 °F 66% 29.61 in 10.0 mi NE 8.1 mph - N/A   Clear
4:55 AM 48.2 °F - 37.4 °F 66% 29.60 in 10.0 mi NE 8.1 mph - N/A   Clear
5:15 AM 48.2 °F - 37.4 °F 66% 29.60 in 10.0 mi NNE 8.1 mph - N/A   Clear
5:35 AM 48.2 °F - 37.4 °F 66% 29.60 in 10.0 mi NE 6.9 mph - N/A   Clear
5:55 AM 48.2 °F - 37.4 °F 66% 29.60 in 10.0 mi NE 9.2 mph - N/A   Clear
6:15 AM 46.4 °F 41.9 °F 35.6 °F 66% 29.60 in 10.0 mi NE 9.2 mph - N/A   Clear
6:35 AM 46.4 °F 41.5 °F 35.6 °F 66% 29.58 in 10.0 mi NE 10.4 mph - N/A   Clear
6:55 AM 46.4 °F 41.1 °F 35.6 °F 66% 29.57 in 10.0 mi NE 11.5 mph - N/A   Clear
7:15 AM 46.4 °F 41.1 °F 37.4 °F 71% 29.56 in 10.0 mi NE 11.5 mph - N/A   Clear
7:35 AM 44.6 °F 39.2 °F 35.6 °F 71% 29.56 in 10.0 mi NE 10.4 mph - N/A   Clear
7:55 AM 46.4 °F 41.9 °F 37.4 °F 71% 29.56 in 10.0 mi NE 9.2 mph - N/A   Clear
8:15 AM 44.6 °F 39.7 °F 37.4 °F 76% 29.56 in 8.0 mi NE 9.2 mph - N/A   Clear
8:35 AM 46.4 °F 40.7 °F 37.4 °F 71% 29.54 in 10.0 mi NE 12.7 mph - N/A   Clear
8:55 AM 46.4 °F 40.4 °F 37.4 °F 71% 29.53 in 8.0 mi NE 13.8 mph - N/A   Clear
9:15 AM 46.4 °F 41.1 °F 37.4 °F 71% 29.51 in 9.0 mi NE 11.5 mph - N/A   Clear
9:35 AM 48.2 °F - 39.2 °F 71% 29.51 in 9.0 mi NE 9.2 mph - N/A   Clear
9:55 AM 46.4 °F 41.1 °F 37.4 °F 71% 29.49 in 8.0 mi NE 11.5 mph 16.1 mph N/A   Clear
10:15 AM 50.0 °F - 39.2 °F 66% 29.46 in 9.0 mi NE 10.4 mph - N/A   Clear
10:35 AM 51.8 °F - 44.6 °F 76% 29.44 in 10.0 mi ENE 6.9 mph - N/A   Clear
10:55 AM 53.6 °F - 46.4 °F 77% 29.43 in 9.0 mi ESE 4.6 mph - N/A   Clear
11:15 AM 53.6 °F - 44.6 °F 72% 29.41 in 10.0 mi SSE 6.9 mph - N/A   Partly Cloudy
11:35 AM 53.6 °F - 44.6 °F 72% 29.38 in 10.0 mi ESE 8.1 mph 26.5 mph 0.01 in   Clear
11:55 AM 53.6 °F - 44.6 °F 72% 29.36 in 10.0 mi Calm Calm - 0.01 in   Mostly Cloudy
12:15 PM 51.8 °F - 44.6 °F 76% 29.34 in 10.0 mi South 3.5 mph - N/A   Mostly Cloudy
12:35 PM 51.8 °F - 44.6 °F 76% 29.32 in 10.0 mi ESE 4.6 mph - N/A   Overcast
12:55 PM 50.0 °F - 42.8 °F 76% 29.30 in 10.0 mi NE 9.2 mph 20.7 mph N/A   Overcast
1:15 PM 50.0 °F - 42.8 °F 76% 29.28 in 10.0 mi NE 8.1 mph - N/A   Overcast
1:35 PM 50.0 °F - 44.6 °F 82% 29.27 in 10.0 mi NNE 4.6 mph - N/A   Overcast
1:55 PM 50.0 °F - 44.6 °F 82% 29.24 in 10.0 mi East 4.6 mph - 0.02 in   Overcast
2:15 PM 51.8 °F - 44.6 °F 76% 29.21 in 10.0 mi NE 4.6 mph - N/A   Overcast
2:35 PM 53.6 °F - 44.6 °F 72% 29.20 in 10.0 mi SSE 5.8 mph - N/A   Overcast
2:55 PM 51.8 °F - 44.6 °F 76% 29.20 in 10.0 mi South 3.5 mph - N/A   Overcast
3:15 PM 53.6 °F - 44.6 °F 72% 29.17 in 10.0 mi NNW 4.6 mph - N/A   Overcast
3:35 PM 55.4 °F - 44.6 °F 67% 29.16 in 10.0 mi Calm Calm - 0.04 in   Overcast
3:55 PM 55.4 °F - 44.6 °F 67% 29.15 in 10.0 mi Calm Calm - 0.05 in   Overcast
4:15 PM 55.4 °F - 44.6 °F 67% 29.13 in 10.0 mi Calm Calm - N/A   Overcast
4:35 PM 55.4 °F - 44.6 °F 67% 29.13 in 8.0 mi Calm Calm - N/A   Overcast
4:55 PM 53.6 °F - 46.4 °F 77% 29.12 in 4.0 mi Calm Calm - 0.01 in   Overcast
5:15 PM 53.6 °F - 46.4 °F 77% 29.10 in 5.0 mi WNW 3.5 mph - 0.01 in   Overcast
5:35 PM 53.6 °F - 48.2 °F 82% 29.09 in 3.0 mi Calm Calm - 0.06 in   Overcast
5:55 PM 53.6 °F - 51.8 °F 94% 29.07 in 8.0 mi WSW 3.5 mph - 0.10 in   Overcast
6:15 PM 53.6 °F - 51.8 °F 94% 29.07 in 5.0 mi Calm Calm - 0.01 in   Overcast
6:35 PM 53.6 °F - 51.8 °F 94% 29.06 in 5.0 mi Calm Calm - 0.04 in   Overcast
6:55 PM 53.6 °F - 51.8 °F 94% 29.05 in 5.0 mi Calm Calm - 0.04 in   Overcast
7:15 PM 53.6 °F - 51.8 °F 94% 29.04 in 8.0 mi Calm Calm - 0.01 in   Overcast
7:35 PM 53.6 °F - 51.8 °F 94% 29.04 in 10.0 mi West 4.6 mph - 0.01 in   Overcast
7:55 PM 53.6 °F - 51.8 °F 94% 29.04 in 10.0 mi WNW 6.9 mph - 0.01 in   Overcast
8:15 PM 51.8 °F - 50.0 °F 94% 29.05 in 5.0 mi WSW 4.6 mph 16.1 mph 0.05 in   Overcast
8:35 PM 48.2 °F - 46.4 °F 93% 29.04 in 2.0 mi Calm Calm - 0.06 in   Overcast
8:55 PM 51.8 °F - 50.0 °F 94% 29.04 in 10.0 mi West 6.9 mph - 0.06 in   Overcast
9:15 PM 51.8 °F - 48.2 °F 88% 29.04 in 8.0 mi SW 5.8 mph - 0.01 in   Overcast
9:35 PM 51.8 °F - 50.0 °F 94% 29.04 in 7.0 mi WSW 5.8 mph - 0.03 in   Overcast
9:55 PM 53.6 °F - 51.8 °F 94% 29.03 in 10.0 mi West 8.1 mph - 0.06 in   Overcast
10:15 PM 51.8 °F - 51.8 °F 100% 29.05 in 9.0 mi Calm Calm - 0.03 in   Overcast
10:35 PM 48.2 °F - 44.6 °F 87% 29.08 in 10.0 mi NNE 3.5 mph - 0.04 in   Overcast
10:55 PM 44.6 °F 43.1 °F 42.8 °F 93% 29.07 in 10.0 mi NE 3.5 mph - 0.04 in   Overcast
11:15 PM 42.8 °F 40.1 °F 37.4 °F 81% 29.12 in 10.0 mi WNW 4.6 mph - N/A   Overcast
11:35 PM 39.2 °F 35.0 °F 35.6 °F 87% 29.16 in 10.0 mi West 5.8 mph - N/A   Overcast
11:55 PM 37.4 °F - 33.8 °F 87% 29.18 in 10.0 mi Calm Calm - N/A   Overcast